User: anonymous   Login
Location: Lucerne Valley
(34.4439°N, 116.9669°E)
Time: 12:02:24
(UTC-07:00)
Language:

N. Korean satellite - Orbit

View from above orbital plane
View from above orbital plane
View from above satellite
View from above satellite

Ground track
Ground track

The orbit data is extracted from the following two-line orbital elements,

1 39026U 12072A   18175.95496988 +.00001393 +00000-0 +54629-4 0  9998
2 39026 097.2098 186.0558 0037532 296.8271 062.9132 15.26782098306780
Epoch (UTC): 24 June 2018 22:55:09
Eccentricity: 0.0037532
inclination: 97.2098°
perigee height: 459 km
apogee height: 511 km
right ascension of ascending node: 186.0558°
argument of perigee: 296.8271°
revolutions per day: 15.26782098
mean anomaly at epoch: 62.9132°
orbit number at epoch: 30678

The dashed part of the orbit path shows where the satellite is in the earth's shadow,  

DLR